Orlando International, FL

8:50 PM EST on February 25, 2018 (GMT -0500)
Orlando International

Weather History for KMCO - April, 2013

Change the Weather History Date:

Saturday, April 27, 2013

  Actual Average Record
Temperature  
Mean Temperature 76 °F 73 °F  
Max Temperature 85 °F 85 °F 97 °F (1908)
Min Temperature 66 °F 62 °F 46 °F (1926)
Degree Days  
Heating Degree Days 0 0  
Month to date heating degree days 0 11  
Since 1 July heating degree days 461 569  
Cooling Degree Days 11 8  
Month to date cooling degree days 254 173  
Year to date cooling degree days 505 395  
Growing Degree Days 25 (Base 50)    
Moisture  
Dew Point 65 °F    
Average Humidity 72    
Maximum Humidity 93    
Minimum Humidity 51    
Precipitation  
Precipitation 0.00 in 0.07 in 1.41 in (1964)
Month to date precipitation 2.66 2.46  
Year to date precipitation 4.84 10.96  
Sea Level Pressure  
Sea Level Pressure 30.19 in    
Wind  
Wind Speed 8 mph (ENE)    
Max Wind Speed 21 mph    
Max Gust Speed 25 mph    
Visibility 10 miles    
Events      
T = Trace of Precipitation, MM = Missing Value Source: NWS Daily Summary

Daily Weather History Graph

Daily Weather History Graph

Search for Another Location

Airport or City:

Trip Planner

Search our weather history database for the weather conditions in past years. The results will help you decide how hot, cold, wet, or windy it might be!

Date:

Astronomy

Apr. 27, 2013 Rise Set
Actual Time 6:48 AM EDT 7:58 PM EDT
Civil Twilight 6:23 AM EDT 8:22 PM EDT
Nautical Twilight 5:54 AM EDT 8:52 PM EDT
Astronomical Twilight 5:23 AM EDT 9:22 PM EDT
Moon 10:17 PM EDT (4/27) 8:12 AM EDT (4/27)
Length of Visible Light 13h 59m
Length of Day
13h 10m
Waning Gibbous, 95% of the Moon is Illuminated
Apr 27
Waning Gibbous
May 2
Last Quarter
May 9
New
May 18
First Quarter
May 25
Full

Hourly Weather History & Observations

Time (EDT) Temp. Heat Index Dew Point Humidity Pressure Visibility Wind Dir Wind Speed Gust Speed Precip Events Conditions
12:53 AM 71.1 °F - 66.9 °F 87% 30.25 in 10.0 mi NNE 6.9 mph - N/A   Scattered Clouds
1:53 AM 70.0 °F - 66.0 °F 87% 30.22 in 10.0 mi ENE 4.6 mph - N/A   Partly Cloudy
2:53 AM 66.9 °F - 64.9 °F 93% 30.19 in 10.0 mi Calm Calm - N/A   Clear
3:53 AM 68.0 °F - 64.9 °F 90% 30.19 in 10.0 mi ENE 4.6 mph - N/A   Partly Cloudy
4:53 AM 68.0 °F - 66.0 °F 93% 30.19 in 10.0 mi East 4.6 mph - N/A   Partly Cloudy
5:53 AM 66.0 °F - 64.0 °F 93% 30.19 in 10.0 mi Calm Calm - N/A   Partly Cloudy
6:53 AM 68.0 °F - 64.9 °F 90% 30.19 in 10.0 mi Calm Calm - N/A   Scattered Clouds
7:53 AM 71.1 °F - 66.9 °F 87% 30.21 in 10.0 mi North 6.9 mph - N/A   Scattered Clouds
8:53 AM 75.0 °F - 66.0 °F 73% 30.21 in 10.0 mi ENE 6.9 mph - N/A   Scattered Clouds
9:53 AM 78.1 °F - 66.0 °F 66% 30.22 in 10.0 mi ENE 6.9 mph - N/A   Scattered Clouds
10:12 AM 75.2 °F - 64.4 °F 69% 30.23 in 10.0 mi ENE 8.1 mph - N/A   Mostly Cloudy
10:53 AM 80.1 °F 81.9 °F 64.9 °F 60% 30.22 in 10.0 mi NE 6.9 mph - N/A   Mostly Cloudy
11:53 AM 81.0 °F 82.5 °F 64.0 °F 56% 30.21 in 10.0 mi ENE 20.7 mph 24.2 mph N/A   Scattered Clouds
12:53 PM 82.0 °F 83.1 °F 63.0 °F 52% 30.20 in 10.0 mi ENE 12.7 mph 21.9 mph N/A   Mostly Cloudy
1:53 PM 82.9 °F 84.0 °F 63.0 °F 51% 30.18 in 10.0 mi NE 13.8 mph 21.9 mph N/A   Mostly Cloudy
2:53 PM 82.9 °F 84.0 °F 63.0 °F 51% 30.17 in 10.0 mi East 18.4 mph - N/A   Mostly Cloudy
3:53 PM 82.0 °F 83.0 °F 62.1 °F 51% 30.15 in 10.0 mi East 12.7 mph - N/A   Mostly Cloudy
4:53 PM 79.0 °F - 64.9 °F 62% 30.14 in 10.0 mi ESE 12.7 mph - N/A   Mostly Cloudy
5:53 PM 80.1 °F 81.1 °F 61.0 °F 52% 30.13 in 10.0 mi East 15.0 mph - N/A   Mostly Cloudy
6:53 PM 79.0 °F - 63.0 °F 58% 30.14 in 10.0 mi East 13.8 mph - N/A   Mostly Cloudy
7:53 PM 73.9 °F - 64.0 °F 71% 30.14 in 10.0 mi ESE 10.4 mph - N/A   Mostly Cloudy
8:53 PM 72.0 °F - 64.0 °F 76% 30.15 in 10.0 mi East 5.8 mph - N/A   Mostly Cloudy
9:53 PM 71.1 °F - 64.0 °F 78% 30.17 in 10.0 mi ENE 6.9 mph - N/A   Partly Cloudy
10:53 PM 69.1 °F - 64.0 °F 84% 30.17 in 10.0 mi East 4.6 mph - N/A   Partly Cloudy
11:53 PM 70.0 °F - 64.9 °F 84% 30.16 in 10.0 mi East 6.9 mph - N/A   Scattered Clouds